Location: Rounton
(54.4000°N, 1.3500°W)
Time: 07:39:49
(UTC+00:00)

Tiros 1 despin weight - Pass Details

Date: 08 December 2021
Orbit: 592 x 641 km, 48.2° (Epoch: 19 January)

Event Time Altitude Azimuth Distance (km) Brightness Sun altitude
Rises 13:02:50 0° 238° (WSW) 2,840 ? 11.6°
Reaches altitude 10° 13:05:18 10° 228° (SW) 1,933 ? 11.5°
Maximum altitude 13:09:13 31° 166° (SSE) 1,039 ? 11.3°
Drops below altitude 10° 13:13:07 10° 104° (ESE) 1,924 ? 11.1°
Sets 13:15:34 0° 94° (E) 2,825 ? 11.0°
